Location: Bremen
(53.0793°N, 8.8017°E)
Time: 19:50:54
(UTC+01:00)

Vanguard 1 Rocket - Pass Details

Date: 11 December 2021
Orbit: 651 x 4224 km, 34.3° (Epoch: 21 January)

Event Time Altitude Azimuth Distance (km) Brightness Sun altitude
Rises 01:18:36 0° 214° (SW) 3,838 - -57.8°
Reaches altitude 10° 01:21:33 10° 198° (SSW) 3,242 - -57.6°
Maximum altitude 01:27:35 22° 151° (SSE) 3,163 - -57.1°
Exits shadow 01:34:27 14° 115° (ESE) 4,559 10.9 -56.6°
Drops below altitude 10° 01:36:44 10° 108° (ESE) 5,149 11.3 -56.4°
Sets 01:43:15 0° 97° (E) 6,871 12.1 -55.8°
